Weather Roundup
Issued by NWS Chicago, IL

Home | Current Version | Previous Version | Text Only | Print | Product List | Glossary Off
Versions: 1 2 3 4 5 6 7 8 9 10 11 12 13 14 15 16 17 18 19 20 21 22 23 24 25 26 27 28 29 30 31 32 33 34 35 36 37 38 39 40 41 42 43 44 45 46 47 48 49 50

000
NZUS59 KLOT 070021
HRRLOT

CHICAGO AREA WEATHER ROUNDUP
NATIONAL WEATHER SERVICE CHICAGO/ROMEOVILLE IL
700 PM CDT MON JUL 06 2015

NOTE: "FAIR" INDICATES FEW OR NO CLOUDS BELOW 12,000 FEET WITH NO
SIGNIFICANT WEATHER AND/OR OBSTRUCTIONS TO VISIBILITY.

* THESE STATIONS ARE NOT UNDER NWS QUALITY CONTROL. THEY ALSO MAY NOT
  REPORT WEATHER SUCH AS PRECIPITATION OR FOG.

ILZ005-006-012>014-019>023-070100-
NORTHEAST ILLINOIS

CITY           SKY/WX    TMP DP  RH WIND       PRES   REMARKS
OHARE          PTSUNNY   79  69  71 S10       29.84F HX  81
6HR MIN TEMP:  73; 6HR MAX TEMP:  85; 6HR PCP:  0.05;

MIDWAY         PTSUNNY   83  70  64 S13       29.84F HX  87
6HR MIN TEMP:  75; 6HR MAX TEMP:  88; 6HR PCP:  0.19;

AURORA         LGT RAIN  80  70  71 S9        29.83F HX  83
6HR MIN TEMP:  71; 6HR MAX TEMP:  85; 6HR PCP:  0.81;

LANSING*       PTSUNNY   76  66  70 S10       29.88S
JOLIET*        PTSUNNY   79  71  74 SE7       29.85F HX  82
WAUKEGAN       CLOUDY    76  71  85 CALM      29.82F
6HR MIN TEMP:  70; 6HR MAX TEMP:  85; 6HR PCP:  0.40;

DUPAGE AIRPORT PTSUNNY   79  70  74 S10       29.84F HX  82
6HR MIN TEMP:  71; 6HR MAX TEMP:  84; 6HR PCP:  0.24;

WHEELING       PTSUNNY   81  70  69 S15       29.85F HX  84
6HR MIN TEMP:  73; 6HR MAX TEMP:  87; 6HR PCP:  0.04;

KANKAKEE*      PTSUNNY   76  72  87 SE3       29.89F
MORRIS*        PTSUNNY   80  71  74 S10       29.83F HX  83
LEWIS AIRPORT* PTSUNNY   78  67  69 S9        29.85F HX  80
NORTHERLY IS     N/A     79  68  69 S9          N/A  HX  81
$$

WIZ051-052-058>065-066-070>072-070100-
SOUTHEAST WISCONSIN

CITY           SKY/WX    TMP DP  RH WIND       PRES   REMARKS
MILWAUKEE      CLOUDY    77  68  73 SW10      29.82F
6HR MIN TEMP:  75; 6HR MAX TEMP:  85; 6HR PCP:  0.06;

KENOSHA*       CLOUDY    76  70  82 CALM      29.83F
RACINE*        CLOUDY    75  69  81 SW6       29.85F
BURLINGTON     CLOUDY    74  69  85 CALM      29.83F
WAUKESHA       PTSUNNY   75  68  78 S8        29.84F
WEST BEND      CLOUDY    77  68  73 S8        29.82F
$$

INZ001>003-010>013-019-020-070100-
NORTHWEST INDIANA

CITY           SKY/WX    TMP DP  RH WIND       PRES   REMARKS
GARY*          PTSUNNY  N/A N/A N/A S6        29.87F
MICHIGAN CITY* NOT AVBL
RENSSELAER*    NOT AVBL
VALPARAISO     RAIN      75  70  84 S13G26    29.92R
$$

LMZ740>746-070100-
SOUTHERN LAKE MICHIGAN

STATION/POSITION TIME  SKY/WX   TEMP WIND        PRES    VSBY
                                AIR  DIR/SP/G
                 (UTC)          (F)  (DEG/KT/KT) (MB)    (MI)
HARRISON CRIB    0000            74  170/ 17/ 19   N/A
BURNHAM HARBOR   0000            79  180/  7/  9   N/A
CALUMET HARBOR   2300            80  160/  8/ 11   N/A
BURNS HARBOR     2300            77  180/  6/ 14 1012.2F
MICHIGAN CITY    0000            77  140/  9/ 13   N/A
$$

ABBREVIATIONS USED IN REMARKS
   TC - TEMPERATURE IN CELSIUS
  WCI - WIND CHILL INDEX
   HX - HEAT INDEX
  VSB - VISIBILITY
$$


USA.gov is the U.S. government's official web portal to all federal, state and local government web resources and services.